Sand Point, AK

3:35 AM AKDT on July 29, 2016 (GMT -0800)
Sand Point

Weather History for PASD - March, 2014

Change the Weather History Date:

Monday, March 3, 2014

  Actual Average Record
Temperature  
Mean Temperature 37 °F -  
Max Temperature 39 °F 34 °F 44 °F (2015)
Min Temperature 35 °F 29 °F 14 °F (2012)
Degree Days  
Heating Degree Days 28    
Moisture  
Dew Point 32 °F    
Average Humidity 82    
Maximum Humidity 93    
Minimum Humidity 70    
Precipitation  
Precipitation 0.00 in - - ()
Sea Level Pressure  
Sea Level Pressure 29.83 in    
Wind  
Wind Speed 5 mph (NE)    
Max Wind Speed 10 mph    
Max Gust Speed -    
Visibility 10 miles    
Events      
Averages and records for this station are not official NWS values.
T = Trace of Precipitation, MM = Missing Value Source: NWS Daily Summary

Daily Weather History Graph

Daily Weather History Graph

Search for Another Location

Airport or City:

Trip Planner

Search our weather history database for the weather conditions in past years. The results will help you decide how hot, cold, wet, or windy it might be!

Date:

Astronomy

Mar. 03, 2014 Rise Set
Actual Time 8:26 AM AKST 7:22 PM AKST
Civil Twilight 7:50 AM AKST 7:58 PM AKST
Nautical Twilight 7:08 AM AKST 8:40 PM AKST
Astronomical Twilight 6:25 AM AKST 9:23 PM AKST
Moon 9:09 AM AKST (3/3) 11:17 PM AKST (3/3)
Length of Visible Light 12h 08m
Length of Day
10h 55m
Waxing Crescent, 9% of the Moon is Illuminated
Mar 3
Waxing Crescent
Mar 8
First Quarter
Mar 16
Full
Mar 23
Last Quarter
Mar 30
New

Hourly Weather History & Observations

Time (AKST) Temp. Windchill Dew Point Humidity Pressure Visibility Wind Dir Wind Speed Gust Speed Precip Events Conditions
12:16 AM 37.4 °F 31.4 °F 33.8 °F 87% 29.81 in 10.0 mi ENE 8.1 mph - N/A   Mostly Cloudy
12:36 AM 37.4 °F 33.8 °F 33.8 °F 87% 29.80 in 10.0 mi NE 4.6 mph - N/A   Overcast
12:56 AM 37.4 °F 32.1 °F 33.8 °F 87% 29.81 in 10.0 mi ENE 6.9 mph - N/A   Overcast
1:16 AM 37.4 °F 34.9 °F 33.8 °F 87% 29.81 in 10.0 mi NE 3.5 mph - N/A   Overcast
1:36 AM 35.6 °F 30.7 °F 33.8 °F 93% 29.81 in 10.0 mi ENE 5.8 mph - N/A   Overcast
1:56 AM 37.4 °F 34.9 °F 33.8 °F 87% 29.81 in 10.0 mi NE 3.5 mph - N/A   Overcast
2:16 AM 37.4 °F - 33.8 °F 87% 29.81 in 10.0 mi Calm Calm - N/A   Overcast
2:36 AM 37.4 °F 34.9 °F 33.8 °F 87% 29.80 in 10.0 mi NE 3.5 mph - N/A   Overcast
2:56 AM 37.4 °F 34.9 °F 33.8 °F 87% 29.81 in 10.0 mi NE 3.5 mph - N/A   Overcast
3:16 AM 37.4 °F - 33.8 °F 87% 29.81 in 10.0 mi Calm Calm - N/A   Overcast
3:36 AM 37.4 °F 34.9 °F 33.8 °F 87% 29.81 in 10.0 mi NE 3.5 mph - N/A   Overcast
3:56 AM 37.4 °F 34.9 °F 32.0 °F 81% 29.81 in 10.0 mi ENE 3.5 mph - N/A   Overcast
4:16 AM 37.4 °F 34.9 °F 32.0 °F 81% 29.81 in 10.0 mi ENE 3.5 mph - N/A   Overcast
4:36 AM 37.4 °F 32.1 °F 32.0 °F 81% 29.81 in 10.0 mi NE 6.9 mph - N/A   Overcast
4:56 AM 37.4 °F 34.9 °F 32.0 °F 81% 29.81 in 10.0 mi NE 3.5 mph - N/A   Overcast
5:16 AM 37.4 °F 32.8 °F 33.8 °F 87% 29.80 in 10.0 mi NNE 5.8 mph - N/A   Overcast
5:36 AM 37.4 °F 31.4 °F 33.8 °F 87% 29.81 in 10.0 mi NNE 8.1 mph - N/A   Overcast
5:56 AM 37.4 °F 33.8 °F 33.8 °F 87% 29.81 in 10.0 mi NE 4.6 mph - N/A   Overcast
6:16 AM 37.4 °F 32.1 °F 32.0 °F 81% 29.80 in 10.0 mi NE 6.9 mph - N/A   Overcast
6:36 AM 37.4 °F 34.9 °F 32.0 °F 81% 29.80 in 10.0 mi NNE 3.5 mph - N/A   Overcast
6:56 AM 37.4 °F 32.8 °F 33.8 °F 87% 29.80 in 10.0 mi NE 5.8 mph - N/A   Overcast
7:16 AM 37.4 °F 33.8 °F 32.0 °F 81% 29.81 in 10.0 mi NE 4.6 mph - N/A   Overcast
7:36 AM 37.4 °F 33.8 °F 32.0 °F 81% 29.81 in 10.0 mi NE 4.6 mph - N/A   Overcast
7:56 AM 37.4 °F 31.4 °F 32.0 °F 81% 29.81 in 10.0 mi NE 8.1 mph - N/A   Overcast
8:16 AM 35.6 °F 31.7 °F 33.8 °F 93% 29.81 in 10.0 mi NE 4.6 mph - N/A   Mostly Cloudy
8:36 AM 37.4 °F 32.8 °F 33.8 °F 87% 29.81 in 10.0 mi NE 5.8 mph - N/A   Mostly Cloudy
8:56 AM 35.6 °F 30.7 °F 33.8 °F 93% 29.82 in 10.0 mi NNE 5.8 mph - N/A   Mostly Cloudy
9:16 AM 37.4 °F 33.8 °F 33.8 °F 87% 29.82 in 10.0 mi NE 4.6 mph - N/A   Mostly Cloudy
9:36 AM 37.4 °F 32.1 °F 33.8 °F 87% 29.82 in 10.0 mi NE 6.9 mph - N/A   Mostly Cloudy
9:56 AM 37.4 °F 32.8 °F 33.8 °F 87% 29.82 in 10.0 mi NE 5.8 mph - N/A   Mostly Cloudy
10:16 AM 37.4 °F 32.1 °F 32.0 °F 81% 29.83 in 10.0 mi NE 6.9 mph - N/A   Mostly Cloudy
10:36 AM 37.4 °F 30.8 °F 33.8 °F 87% 29.83 in 10.0 mi NE 9.2 mph - N/A   Mostly Cloudy
10:56 AM 37.4 °F 32.1 °F 33.8 °F 87% 29.83 in 10.0 mi NE 6.9 mph - N/A   Mostly Cloudy
11:16 AM 37.4 °F 33.8 °F 33.8 °F 87% 29.83 in 10.0 mi NNE 4.6 mph - N/A   Mostly Cloudy
11:36 AM 39.2 °F 33.0 °F 32.0 °F 75% 29.83 in 10.0 mi NNE 9.2 mph - N/A   Mostly Cloudy
11:56 AM 39.2 °F 33.0 °F 32.0 °F 75% 29.83 in 10.0 mi NE 9.2 mph - N/A   Mostly Cloudy
12:16 PM 39.2 °F 33.6 °F 32.0 °F 75% 29.84 in 10.0 mi NE 8.1 mph - N/A   Mostly Cloudy
12:36 PM 39.2 °F 35.0 °F 33.8 °F 81% 29.84 in 10.0 mi NE 5.8 mph - N/A   Mostly Cloudy
12:56 PM 37.4 °F 32.1 °F 33.8 °F 87% 29.84 in 10.0 mi NE 6.9 mph - N/A   Overcast
1:16 PM 37.4 °F 32.1 °F 33.8 °F 87% 29.84 in 10.0 mi NE 6.9 mph - N/A   Overcast
1:36 PM 39.2 °F 33.6 °F 33.8 °F 81% 29.84 in 10.0 mi NE 8.1 mph - N/A   Overcast
1:56 PM 37.4 °F 31.4 °F 32.0 °F 81% 29.84 in 10.0 mi NE 8.1 mph - N/A   Mostly Cloudy
2:16 PM 39.2 °F 33.6 °F 30.2 °F 70% 29.84 in 10.0 mi NE 8.1 mph - N/A   Mostly Cloudy
2:36 PM 39.2 °F 32.5 °F 32.0 °F 75% 29.84 in 10.0 mi NNE 10.4 mph - N/A   Mostly Cloudy
2:56 PM 39.2 °F 32.5 °F 32.0 °F 75% 29.83 in 10.0 mi NNE 10.4 mph - N/A   Mostly Cloudy
3:16 PM 39.2 °F 33.0 °F 32.0 °F 75% 29.83 in 10.0 mi NNE 9.2 mph - N/A   Mostly Cloudy
3:36 PM 39.2 °F 33.6 °F 32.0 °F 75% 29.83 in 10.0 mi NE 8.1 mph - N/A   Overcast
3:56 PM 39.2 °F 34.2 °F 32.0 °F 75% 29.83 in 10.0 mi NE 6.9 mph - N/A   Mostly Cloudy
4:16 PM 39.2 °F 33.6 °F 32.0 °F 75% 29.83 in 10.0 mi NNE 8.1 mph - N/A   Mostly Cloudy
4:36 PM 37.4 °F 30.3 °F 32.0 °F 81% 29.83 in 10.0 mi NNE 10.4 mph - N/A   Mostly Cloudy
4:56 PM 37.4 °F 32.1 °F 30.2 °F 75% 29.83 in 10.0 mi NNE 6.9 mph - N/A   Mostly Cloudy
5:16 PM 39.2 °F 34.2 °F 30.2 °F 70% 29.83 in 10.0 mi ENE 6.9 mph - N/A   Mostly Cloudy
5:36 PM 37.4 °F 32.8 °F 30.2 °F 75% 29.83 in 10.0 mi NNE 5.8 mph - N/A   Mostly Cloudy
5:56 PM 37.4 °F 31.4 °F 30.2 °F 75% 29.83 in 10.0 mi NNE 8.1 mph - N/A   Mostly Cloudy
6:16 PM 37.4 °F 33.8 °F 30.2 °F 75% 29.83 in 10.0 mi East 4.6 mph - N/A   Mostly Cloudy
6:36 PM 37.4 °F 34.9 °F 30.2 °F 75% 29.83 in 10.0 mi NE 3.5 mph - N/A   Mostly Cloudy
6:56 PM 37.4 °F 34.9 °F 30.2 °F 75% 29.84 in 10.0 mi NNE 3.5 mph - N/A   Overcast
7:16 PM 37.4 °F - 30.2 °F 75% 29.84 in 10.0 mi Calm Calm - N/A   Overcast
7:36 PM 37.4 °F 34.9 °F 30.2 °F 75% 29.84 in 10.0 mi NE 3.5 mph - N/A   Overcast
7:56 PM 37.4 °F 34.9 °F 30.2 °F 75% 29.85 in 10.0 mi NNE 3.5 mph - N/A   Overcast
8:16 PM 37.4 °F 34.9 °F 30.2 °F 75% 29.85 in 10.0 mi NE 3.5 mph - N/A   Overcast
8:36 PM 37.4 °F 34.9 °F 30.2 °F 75% 29.85 in 10.0 mi NE 3.5 mph - N/A   Overcast
8:56 PM 35.6 °F 32.8 °F 30.2 °F 81% 29.85 in 10.0 mi NE 3.5 mph - N/A   Overcast
9:16 PM 35.6 °F - 30.2 °F 81% 29.85 in 10.0 mi Calm Calm - N/A   Overcast
9:36 PM 35.6 °F - 30.2 °F 81% 29.86 in 10.0 mi Calm Calm - N/A   Overcast
9:56 PM 35.6 °F - 30.2 °F 81% 29.86 in 10.0 mi Calm Calm - N/A   Overcast
10:16 PM 35.6 °F - 30.2 °F 81% 29.86 in 10.0 mi Calm Calm - N/A   Overcast
10:36 PM 35.6 °F - 30.2 °F 81% 29.86 in 10.0 mi Calm Calm - N/A   Overcast
10:56 PM 35.6 °F - 30.2 °F 81% 29.87 in 10.0 mi Calm Calm - N/A   Overcast
11:16 PM 35.6 °F - 30.2 °F 81% 29.87 in 10.0 mi Calm Calm - N/A   Overcast
11:36 PM 35.6 °F - 32.0 °F 87% 29.87 in 9.0 mi Calm Calm - N/A   Overcast
11:56 PM 35.6 °F - 32.0 °F 87% 29.87 in 10.0 mi Calm Calm - N/A   Overcast